Weather History for Fort Worth, TX

Change the Weather History Date:

Tuesday, May 28, 2013

  Actual Average Record
Temperature  
Mean Temperature 76 °F -  
Max Temperature 84 °F 86 °F 97 °F (2011)
Min Temperature 71 °F 65 °F 57 °F (2003)
Cooling Degree Days 12    
Growing Degree Days 26 (Base 50)    
Moisture  
Dew Point 68 °F    
Average Humidity 75    
Maximum Humidity 90    
Minimum Humidity 60    
Precipitation  
Precipitation 0.00 in - - ()
Sea Level Pressure  
Sea Level Pressure 29.79 in    
Wind  
Wind Speed 18 mph (South)    
Max Wind Speed 26 mph    
Max Gust Speed 41 mph    
Visibility 10 miles    
Events      
Averages and records for this station are not official NWS values.
T = Trace of Precipitation, MM = Missing Value Source: NWS Daily Summary

Daily Weather History Graph

Daily Weather History Graph

Search for Another Location

Airport:

Trip Planner

Search our weather history database for the weather conditions in past years. The results will help you decide how hot, cold, wet, or windy it might be!

Date:

Astronomy

May. 28, 2013 Rise Set
Actual Time 6:23 AM CDT 8:30 PM CDT
Civil Twilight 5:55 AM CDT 8:58 PM CDT
Nautical Twilight 5:21 AM CDT 9:32 PM CDT
Astronomical Twilight 4:44 AM CDT 10:09 PM CDT
Moon No Moon Rise 10:08 AM CDT (5/28)
Length of Visible Light 15h 03m
Length of Day
14h 07m
Waning Gibbous, 82% of the Moon is Illuminated
May 28
Waning Gibbous
May 31
Last Quarter
Jun 8
New
Jun 16
First Quarter
Jun 23
Full

Hourly Weather History & Observations

Time (CDT) Temp. Heat Index Dew Point Humidity Pressure Visibility Wind Dir Wind Speed Gust Speed Precip Events Conditions
12:53 AM 77.0 °F - 69.1 °F 76% 29.82 in 10.0 mi South 12.7 mph - N/A   Clear
1:53 AM 75.9 °F - 69.1 °F 79% 29.78 in 10.0 mi South 21.9 mph 34.5 mph N/A   Clear
2:53 AM 73.9 °F - 68.0 °F 82% 29.76 in 10.0 mi South 23.0 mph 31.1 mph N/A   Clear
3:53 AM 72.0 °F - 68.0 °F 87% 29.76 in 10.0 mi South 20.7 mph 29.9 mph N/A   Clear
4:53 AM 72.0 °F - 68.0 °F 87% 29.78 in 10.0 mi South 16.1 mph 28.8 mph N/A   Scattered Clouds
5:06 AM 71.6 °F - 68.0 °F 88% 29.80 in 10.0 mi South 16.1 mph 25.3 mph N/A   Mostly Cloudy
5:20 AM 71.6 °F - 68.0 °F 88% 29.80 in 10.0 mi South 18.4 mph 28.8 mph N/A   Scattered Clouds
5:53 AM 71.1 °F - 68.0 °F 90% 29.78 in 10.0 mi South 16.1 mph 28.8 mph N/A   Scattered Clouds
6:03 AM 71.6 °F - 68.0 °F 88% 29.81 in 10.0 mi South 19.6 mph 28.8 mph N/A   Mostly Cloudy
6:53 AM 72.0 °F - 68.0 °F 87% 29.81 in 10.0 mi South 15.0 mph 24.2 mph N/A   Overcast
7:53 AM 73.0 °F - 68.0 °F 84% 29.82 in 10.0 mi South 20.7 mph 28.8 mph N/A   Mostly Cloudy
8:53 AM 75.0 °F - 68.0 °F 79% 29.83 in 10.0 mi South 21.9 mph 27.6 mph N/A   Mostly Cloudy
9:53 AM 75.9 °F - 68.0 °F 76% 29.84 in 10.0 mi South 18.4 mph 32.2 mph N/A   Mostly Cloudy
10:53 AM 78.1 °F - 68.0 °F 71% 29.84 in 10.0 mi South 18.4 mph 32.2 mph N/A   Mostly Cloudy
11:53 AM 79.0 °F - 68.0 °F 69% 29.86 in 10.0 mi South 18.4 mph 25.3 mph N/A   Mostly Cloudy
12:53 PM 82.0 °F 85.5 °F 69.1 °F 65% 29.83 in 10.0 mi South 17.3 mph 26.5 mph N/A   Scattered Clouds
1:53 PM 81.0 °F 83.8 °F 68.0 °F 65% 29.82 in 10.0 mi South 15.0 mph - N/A   Mostly Cloudy
2:53 PM 82.0 °F 84.5 °F 66.9 °F 60% 29.81 in 10.0 mi South 19.6 mph 26.5 mph N/A   Partly Cloudy
3:53 PM 82.0 °F 84.5 °F 66.9 °F 60% 29.79 in 10.0 mi South 19.6 mph 32.2 mph N/A   Partly Cloudy
4:53 PM 82.0 °F 84.9 °F 68.0 °F 62% 29.77 in 10.0 mi South 16.1 mph 24.2 mph N/A   Partly Cloudy
5:53 PM 82.0 °F 84.9 °F 68.0 °F 62% 29.73 in 10.0 mi SE 19.6 mph 26.5 mph N/A   Clear
6:53 PM 82.0 °F 85.5 °F 69.1 °F 65% 29.74 in 10.0 mi SSE 17.3 mph 24.2 mph N/A   Clear
7:53 PM 82.0 °F 84.9 °F 68.0 °F 62% 29.75 in 10.0 mi SSE 12.7 mph 23.0 mph N/A   Clear
8:53 PM 80.1 °F 82.7 °F 68.0 °F 67% 29.76 in 10.0 mi SSE 12.7 mph - N/A   Clear
9:53 PM 80.1 °F 82.7 °F 68.0 °F 67% 29.74 in 10.0 mi SSE 19.6 mph 26.5 mph N/A   Clear
10:53 PM 79.0 °F - 69.1 °F 72% 29.73 in 10.0 mi SSE 26.5 mph 41.4 mph N/A   Clear
11:53 PM 77.0 °F - 70.0 °F 79% 29.72 in 10.0 mi SSE 20.7 mph 35.7 mph N/A   Partly Cloudy